Weather in Ilyinka

Russia / Kursk Oblast     51°19′33″N   36°51′48″E
temp.,
°C
wind,
m/s
gust,
m/s
humid.,
%
clouds,
%
prec.,
mm/h
press.,
hPa
HPBL,
m
24 july, sat
sat2400:00+18nw3469100 0.0 101289
03:00+15wnw347872 0.0 101354
06:00+17w3672100 0.0 1012176
09:00+20wnw346416 0.2 1013485
12:00+22nw566339 1.4 1013875
15:00+25nnw354467 3.4 10132209
18:00+23n575023 0.0 1015468
21:00+17nne336323 0.0 101638
25 july, sun
sun2500:00+17ene3661100 0.0 1018174
03:00+16e2264100 0.0 101946
06:00+17e236612 0.0 102060
09:00+21ene334618 0.0 1021632
12:00+24ene33400 0.0 10211713
15:00+25ne233536 0.0 10212376
18:00+25ne334181 0.0 10211144
21:00+20ene345376 0.0 102288
26 july, mon
mon2600:00+17e35575 0.0 102385
03:00+15ene35617 0.0 102474
06:00+17ese355791 0.0 1024118
09:00+21ene235128 0.0 1024315
12:00+25ne34350 0.0 10241921
15:00+26ne44340 0.0 10232219
18:00+25nne44410 0.0 10231593
21:00+19nne33560 0.0 102328
27 july, tue
tue2700:00+17nne33604 0.0 102428
03:00+15ene22670 0.0 102320
06:00+16se23690 0.0 102451
09:00+23ese23450 0.0 1024470
12:00+26e33350 0.0 10232049
15:00+27ene33321 0.0 10222405
18:00+26e23360 0.0 10212179
21:00+20ese22470 0.0 102211
28 july, wed
wed2800:00+18ese22530 0.0 102211
03:00+17ese22570 0.0 102111
06:00+17sse22600 0.0 102111
09:00+24sse34425 0.0 1020437
12:00+27sse44320 0.0 10182003
15:00+29sse45305 0.0 10172386
18:00+28se453795 0.0 1015637
21:00+21se385097 0.0 1014149